Tracking 25934 objects as of 11-Aug-2022
HD Live streaming from Space Station
objects crossing your sky now

KSF1-D

Track KSF1-D now!
10-day predictions


NORAD ID: 48950
Int'l Code: 2021-059BZ
Perigee: 503.3 km
Apogee: 522.1 km
Inclination: 97.6 °
Period: 94.7 minutes
Semi major axis: 6883 km
RCS: Unknown
Launch date: June 30, 2021
Source: Luxembourg (LUXE)
Launch site: AIR FORCE EASTERN TEST RANGE (AFETR)
aabbcc
Your satellite tracking list
Your tracking list is empty




NASA's NSSDC Master Catalog

Two Line Element Set (TLE):
1 48950U 21059BZ  22222.73162366  .00008567  00000-0  39878-3 0  9991
2 48950  97.5543 353.3250 0013638 274.0848 193.4031 15.20099446 62252
Source of the keplerian elements: AFSPC